Total_Precipitation_Accumulation
0.05 0.06 0.11 0.19 0.22 0.29 0.43 0.41 0.25 0.20 0.18 0.17 0.18 0.20 0.21 0.24 0.33 0.50 0.70 0.82 0.93 0.98 1.01 1.06 1.09 1.17 1.20 1.12 1.17 1.23 1.33 1.46 1.33 1.07 1.11 1.23 1.09 0.84 0.66 0.59 0.52 0.52 0.50
0.03 0.05 0.08 0.17 0.21 0.25 0.32 0.34 0.27 0.21 0.18 0.16 0.15 0.14 0.13 0.16 0.25 0.42 0.59 0.75 0.90 1.02 1.05 1.06 0.97 0.98 1.09 1.13 1.16 1.20 1.24 1.37 1.31 1.20 1.16 1.26 1.24 1.07 0.88 0.68 0.51 0.43 0.44
0.04 0.06 0.07 0.08 0.09 0.11 0.13 0.17 0.21 0.24 0.25 0.22 0.19 0.19 0.23 0.28 0.36 0.45 0.52 0.64 0.80 0.89 0.93 0.91 0.88 0.92 0.93 1.03 1.09 1.11 1.13 1.13 1.20 1.22 1.21 1.33 1.34 1.19 0.96 0.76 0.58 0.53 0.48
0.06 0.07 0.08 0.07 0.07 0.07 0.10 0.14 0.19 0.23 0.24 0.23 0.23 0.26 0.32 0.40 0.43 0.43 0.46 0.54 0.60 0.67 0.72 0.71 0.70 0.76 0.82 0.88 0.91 0.94 0.99 1.05 1.10 1.12 1.20 1.33 1.36 1.34 1.13 0.89 0.69 0.57 0.53
0.13 0.15 0.15 0.13 0.12 0.11 0.13 0.15 0.17 0.18 0.17 0.21 0.25 0.29 0.34 0.38 0.36 0.39 0.44 0.41 0.47 0.48 0.46 0.49 0.52 0.55 0.62 0.72 0.73 0.78 0.87 0.93 0.98 1.07 1.16 1.31 1.34 1.38 1.23 1.00 0.84 0.71 0.61
0.18 0.24 0.24 0.21 0.14 0.10 0.11 0.13 0.17 0.17 0.18 0.22 0.25 0.28 0.29 0.25 0.25 0.26 0.27 0.27 0.31 0.37 0.38 0.37 0.35 0.41 0.46 0.52 0.57 0.62 0.72 0.80 0.89 0.99 1.10 1.22 1.31 1.28 1.24 1.15 1.02 0.84 0.65
0.21 0.21 0.28 0.31 0.20 0.14 0.13 0.14 0.17 0.19 0.22 0.27 0.30 0.32 0.32 0.33 0.20 0.13 0.11 0.16 0.24 0.31 0.38 0.41 0.30 0.24 0.33 0.42 0.49 0.50 0.53 0.60 0.72 0.87 0.97 1.09 1.26 1.32 1.35 1.26 1.19 1.05 0.82
0.23 0.21 0.28 0.33 0.26 0.24 0.25 0.25 0.26 0.30 0.33 0.37 0.38 0.39 0.43 0.38 0.23 0.13 0.10 0.12 0.20 0.28 0.34 0.39 0.38 0.32 0.33 0.38 0.49 0.52 0.50 0.47 0.53 0.64 0.74 0.95 1.28 1.50 1.52 1.49 1.46 1.36 1.14
0.25 0.25 0.29 0.37 0.34 0.36 0.37 0.39 0.44 0.48 0.49 0.50 0.51 0.50 0.51 0.49 0.34 0.20 0.17 0.19 0.27 0.31 0.35 0.38 0.39 0.36 0.29 0.25 0.37 0.46 0.50 0.50 0.48 0.57 0.67 0.84 1.06 1.39 1.56 1.58 1.62 1.44 1.22
0.26 0.28 0.34 0.47 0.54 0.51 0.52 0.56 0.58 0.65 0.66 0.65 0.61 0.58 0.59 0.63 0.51 0.30 0.25 0.30 0.40 0.43 0.50 0.50 0.41 0.38 0.31 0.23 0.33 0.43 0.46 0.48 0.52 0.55 0.59 0.64 0.77 1.04 1.29 1.32 1.33 1.36 1.15
0.31 0.35 0.43 0.61 0.79 0.77 0.73 0.72 0.74 0.76 0.81 0.85 0.84 0.80 0.78 0.74 0.64 0.37 0.27 0.35 0.46 0.54 0.53 0.54 0.51 0.42 0.31 0.24 0.25 0.35 0.38 0.44 0.58 0.65 0.68 0.74 0.82 0.93 1.08 1.17 1.22 1.22 1.14
0.39 0.42 0.49 0.65 0.73 0.78 0.87 0.90 0.96 0.98 0.98 0.99 1.02 0.97 0.94 0.91 0.73 0.50 0.31 0.33 0.47 0.63 0.65 0.63 0.63 0.51 0.38 0.31 0.25 0.23 0.26 0.32 0.46 0.59 0.66 0.69 0.73 0.77 0.87 1.03 1.20 1.24 1.20
0.53 0.53 0.56 0.64 0.77 0.93 0.97 0.94 0.99 1.07 1.09 1.11 1.11 1.05 1.03 1.10 0.96 0.61 0.44 0.39 0.45 0.64 0.78 0.81 0.71 0.57 0.49 0.40 0.35 0.29 0.27 0.30 0.40 0.48 0.55 0.58 0.64 0.71 0.86 1.06 1.25 1.42 1.37
0.60 0.59 0.61 0.68 0.77 0.91 1.05 1.06 1.12 1.15 1.17 1.22 1.23 1.15 1.15 1.25 1.20 0.91 0.68 0.57 0.54 0.61 0.72 0.76 0.72 0.68 0.62 0.55 0.45 0.38 0.31 0.33 0.39 0.44 0.52 0.62 0.73 0.90 0.98 0.99 1.07 1.24 1.37
0.68 0.62 0.62 0.67 0.77 0.84 0.97 1.08 1.11 1.14 1.09 1.11 1.15 1.12 1.14 1.24 1.19 0.96 0.81 0.74 0.69 0.70 0.76 0.83 0.86 0.87 0.78 0.70 0.63 0.57 0.54 0.53 0.49 0.52 0.61 0.72 0.77 0.85 0.94 1.00 1.04 1.06 1.09
0.84 0.74 0.68 0.67 0.74 0.81 0.90 0.93 0.84 0.82 0.79 0.79 0.82 0.77 0.78 0.94 0.97 0.77 0.65 0.67 0.67 0.65 0.72 0.81 0.87 0.92 0.88 0.80 0.76 0.71 0.71 0.68 0.65 0.68 0.73 0.78 0.82 0.83 0.89 1.03 1.13 1.11 1.01
1.05 0.89 0.77 0.71 0.72 0.75 0.85 0.92 0.95 0.84 0.75 0.68 0.64 0.56 0.53 0.73 0.84 0.73 0.62 0.58 0.55 0.56 0.64 0.72 0.77 0.85 0.90 0.83 0.77 0.71 0.71 0.71 0.76 0.79 0.78 0.81 0.86 0.90 0.95 1.02 1.13 1.18 1.10
1.09 0.97 0.82 0.77 0.75 0.72 0.76 0.85 0.93 1.00 0.96 0.79 0.62 0.52 0.46 0.60 0.73 0.71 0.62 0.54 0.52 0.55 0.61 0.68 0.75 0.81 0.88 0.85 0.77 0.77 0.80 0.85 0.84 0.84 0.85 0.86 0.90 0.94 0.98 1.01 1.05 1.09 1.10
0.99 0.92 0.83 0.80 0.80 0.73 0.68 0.74 0.82 0.90 1.00 0.95 0.77 0.64 0.57 0.64 0.73 0.69 0.59 0.52 0.55 0.55 0.58 0.65 0.72 0.80 0.83 0.81 0.81 0.83 0.85 0.88 0.83 0.84 0.90 0.94 0.90 0.93 0.92 0.96 1.03 1.11 1.15
0.82 0.68 0.65 0.72 0.73 0.70 0.68 0.72 0.81 0.89 0.97 0.96 0.84 0.72 0.62 0.65 0.74 0.74 0.64 0.60 0.59 0.56 0.55 0.61 0.69 0.74 0.78 0.81 0.87 0.90 0.88 0.92 0.94 0.88 0.90 0.97 0.90 0.89 0.87 0.88 0.98 1.03 1.03
0.70 0.57 0.47 0.52 0.62 0.67 0.70 0.76 0.87 0.94 0.97 0.90 0.77 0.64 0.55 0.52 0.62 0.64 0.66 0.67 0.64 0.62 0.62 0.61 0.65 0.70 0.72 0.78 0.86 0.91 0.92 0.94 0.97 0.92 0.90 0.97 0.94 0.93 0.95 0.91 0.91 1.01 1.01
0.66 0.55 0.46 0.47 0.53 0.58 0.68 0.80 0.89 0.90 0.85 0.80 0.72 0.63 0.58 0.56 0.61 0.63 0.67 0.66 0.63 0.61 0.57 0.58 0.61 0.68 0.72 0.75 0.80 0.86 0.89 0.90 0.93 0.95 0.93 0.97 0.99 0.96 0.97 0.95 0.92 1.00 1.06
0.59 0.45 0.37 0.37 0.41 0.44 0.57 0.75 0.81 0.75 0.68 0.66 0.66 0.63 0.63 0.64 0.62 0.64 0.66 0.64 0.62 0.59 0.55 0.58 0.61 0.65 0.72 0.72 0.71 0.77 0.82 0.83 0.82 0.87 0.96 0.96 0.98 0.98 0.98 0.99 0.97 0.97 1.03
0.52 0.39 0.28 0.25 0.30 0.39 0.55 0.72 0.73 0.64 0.60 0.62 0.61 0.63 0.63 0.63 0.62 0.62 0.64 0.65 0.64 0.63 0.60 0.61 0.61 0.59 0.62 0.68 0.67 0.65 0.65 0.63 0.63 0.71 0.81 0.90 0.94 1.01 0.99 0.97 0.98 0.92 0.99
0.49 0.39 0.31 0.26 0.29 0.42 0.61 0.71 0.64 0.57 0.55 0.56 0.53 0.57 0.61 0.63 0.63 0.64 0.64 0.66 0.66 0.68 0.66 0.62 0.60 0.57 0.53 0.53 0.56 0.54 0.50 0.42 0.41 0.51 0.63 0.75 0.80 0.89 0.93 0.91 0.96 0.96 0.97
0.45 0.41 0.35 0.32 0.36 0.48 0.60 0.64 0.58 0.54 0.57 0.54 0.53 0.55 0.60 0.64 0.64 0.62 0.62 0.63 0.63 0.61 0.54 0.50 0.48 0.49 0.48 0.46 0.42 0.36 0.31 0.28 0.30 0.36 0.47 0.61 0.71 0.78 0.84 0.88 0.92 0.98 0.93